Weather History for Covington, KY

Change the Weather History Date:

Wednesday, April 30, 2014

  Actual Average Record
Temperature  
Mean Temperature 61 °F 59 °F  
Max Temperature 70 °F 69 °F 89 °F (1942)
Min Temperature 52 °F 48 °F 31 °F (1958)
Degree Days  
Heating Degree Days 4 7  
Month to date heating degree days 271 341  
Since 1 July heating degree days 5297 4834  
Cooling Degree Days 0 1  
Month to date cooling degree days 7 18  
Year to date cooling degree days 7 18  
Growing Degree Days 12 (Base 50)    
Moisture  
Dew Point 50 °F    
Average Humidity 69    
Maximum Humidity 93    
Minimum Humidity 44    
Precipitation  
Precipitation T in 0.14 in 1.31 in (1924)
Month to date precipitation 6.66 3.89  
Year to date precipitation 14.61 13.66  
Snow  
Snow 0.00 in 0.00 in 1.50 in (1908)
Month to date snowfall 0.6 0.5  
Since 1 July snowfall 47.5 22.1  
Snow Depth 0.00 in    
Sea Level Pressure  
Sea Level Pressure 29.79 in    
Wind  
Wind Speed 10 mph (SSW)    
Max Wind Speed 21 mph    
Max Gust Speed 26 mph    
Visibility 10 miles    
Events Rain    
T = Trace of Precipitation, MM = Missing Value Source: NWS Daily Summary

Daily Weather History Graph

Daily Weather History Graph

Search for Another Location

Airport:

Trip Planner

Search our weather history database for the weather conditions in past years. The results will help you decide how hot, cold, wet, or windy it might be!

Date:

Astronomy

Apr. 30, 2014 Rise Set
Actual Time 6:41 AM EDT 8:30 PM EDT
Civil Twilight 6:13 AM EDT 8:59 PM EDT
Nautical Twilight 5:38 AM EDT 9:34 PM EDT
Astronomical Twilight 5:00 AM EDT 10:11 PM EDT
Moon 7:42 AM EDT (4/30) 10:08 PM EDT (4/30)
Length of Visible Light 14h 46m
Length of Day
13h 48m
New Moon, 2% of the Moon is Illuminated
Apr 30
New Moon
May 6
First Quarter
May 14
Full
May 21
Last Quarter
May 28
New

Hourly Weather History & Observations

Time (EDT) Temp. Dew Point Humidity Pressure Visibility Wind Dir Wind Speed Gust Speed Precip Events Conditions
12:52 AM 55.0 °F 52.0 °F 89% 29.81 in 10.0 mi SE 11.5 mph - 0.02 in   Overcast
1:52 AM 55.0 °F 52.0 °F 89% 29.78 in 10.0 mi SSE 6.9 mph - N/A   Overcast
2:52 AM 54.0 °F 52.0 °F 93% 29.77 in 10.0 mi SSE 6.9 mph - 0.00 in Rain Light Rain
3:52 AM 54.0 °F 52.0 °F 93% 29.79 in 10.0 mi SSE 8.1 mph - 0.00 in   Overcast
4:31 AM 53.6 °F 53.6 °F 100% 29.83 in 10.0 mi South 10.4 mph - 0.00 in   Overcast
4:52 AM 55.0 °F 53.1 °F 93% 29.80 in 10.0 mi SSE 11.5 mph - 0.00 in   Overcast
5:52 AM 55.0 °F 53.1 °F 93% 29.78 in 10.0 mi SSE 9.2 mph - N/A   Overcast
6:52 AM 55.0 °F 53.1 °F 93% 29.79 in 10.0 mi SSE 9.2 mph - 0.00 in   Overcast
7:52 AM 55.0 °F 53.1 °F 93% 29.78 in 8.0 mi SSE 6.9 mph - N/A   Overcast
8:52 AM 55.9 °F 54.0 °F 93% 29.78 in 10.0 mi SSE 4.6 mph - N/A   Overcast
9:52 AM 57.0 °F 54.0 °F 89% 29.79 in 10.0 mi South 6.9 mph - N/A   Overcast
10:52 AM 60.8 °F 53.6 °F 77% 29.78 in 10.0 mi West 4.6 mph - N/A   Overcast
11:36 AM 60.8 °F 55.4 °F 82% 29.78 in 10.0 mi Calm Calm - N/A   Overcast
11:52 AM 61.0 °F 54.0 °F 78% 29.79 in 10.0 mi SW 6.9 mph - N/A   Mostly Cloudy
12:52 PM 64.9 °F 55.0 °F 70% 29.77 in 10.0 mi West 10.4 mph - N/A   Scattered Clouds
1:52 PM 66.2 °F 51.8 °F 60% 29.77 in 10.0 mi West 8.1 mph - N/A   Scattered Clouds
2:52 PM 66.9 °F 50.0 °F 54% 29.75 in 10.0 mi South 10.4 mph - N/A   Mostly Cloudy
3:52 PM 69.1 °F 48.0 °F 47% 29.75 in 10.0 mi SW 12.7 mph 20.7 mph N/A   Mostly Cloudy
4:52 PM 69.1 °F 46.9 °F 45% 29.75 in 10.0 mi WSW 11.5 mph 26.5 mph N/A   Scattered Clouds
5:52 PM 66.9 °F 45.0 °F 45% 29.75 in 10.0 mi SW 10.4 mph - N/A   Scattered Clouds
6:52 PM 66.0 °F 45.0 °F 47% 29.77 in 10.0 mi West 15.0 mph 21.9 mph N/A   Scattered Clouds
7:52 PM 60.1 °F 45.0 °F 57% 29.80 in 10.0 mi West 13.8 mph - N/A   Scattered Clouds
8:52 PM 57.9 °F 45.0 °F 62% 29.84 in 10.0 mi WNW 17.3 mph - N/A   Overcast
9:52 PM 55.9 °F 45.0 °F 67% 29.87 in 10.0 mi West 9.2 mph - N/A   Overcast
10:52 PM 54.0 °F 46.0 °F 75% 29.89 in 10.0 mi West 11.5 mph - N/A   Overcast
11:52 PM 53.1 °F 44.1 °F 71% 29.89 in 10.0 mi West 9.2 mph - N/A   Overcast